Date String (YYYY-MM-DD hh:mm:ss) UTC,Instrument flags,Ambient pressure (hPa),Sample flow (lpm),Bypass flow (lpm),Sample temperature (°C),Ambient temperature (°C),ASC tube jacket temperature (°C),LED temperature (°C),Box temperature (°C),Sample RH (%),Span deviation,Mass concentration (μg/m³),Mass concentration (μg/m³),Mass concentration (μg/m³)
DateTimeUTC,F1_M11,P_M11,Q1_M11,Q2_M11,T1_M11,T2_M11,T3_M11,T4_M11,T5_M11,U1_M11,ZSPAN_M11,X0_M11,X2_M11,X1_M11
2021-09-30 07:00:00,,0832.9,5.00,0.00,28.1,27.5,00.0,37.3,29.9,19.9,0000.0,0006.30,0002.96,0002.50
2021-09-30 07:01:00,,0832.9,5.01,0.00,28.1,27.4,00.0,37.3,29.9,20.0,0000.0,0006.52,0003.05,0002.56
2021-09-30 07:02:00,,0832.8,5.00,0.00,28.1,27.4,00.0,37.3,29.9,20.0,0000.0,0006.59,0003.09,0002.57
2021-09-30 07:03:00,,0832.8,5.00,0.00,28.1,27.4,00.0,37.3,29.9,20.0,0000.0,0007.43,0003.11,0002.56
2021-09-30 07:04:00,,0832.9,4.99,0.00,28.1,27.4,00.0,37.3,29.9,20.0,0000.0,0007.47,0003.13,0002.57
2021-09-30 07:05:00,,0832.9,4.99,0.00,28.1,27.4,00.0,37.2,29.9,20.1,0000.0,0007.68,0003.14,0002.57
2021-09-30 07:06:00,,0832.9,5.02,0.00,28.2,27.4,00.0,37.2,29.9,20.1,0000.0,0007.55,0003.14,0002.57
2021-09-30 07:07:00,,0832.9,4.99,0.00,28.2,27.5,00.0,37.2,30.0,20.1,0000.0,0007.54,0003.14,0002.57
2021-09-30 07:08:00,,0832.8,5.00,0.00,28.2,27.5,00.0,37.2,30.0,20.2,0000.0,0007.63,0003.17,0002.58
2021-09-30 07:09:00,,0832.8,5.00,0.00,28.2,27.5,00.0,37.3,30.0,20.2,0000.0,0007.65,0003.17,0002.59
2021-09-30 07:10:00,,0832.9,5.01,0.00,28.2,27.5,00.0,37.3,30.0,20.2,0000.0,0007.55,0003.21,0002.61
2021-09-30 07:11:00,,0832.9,5.01,0.00,28.2,27.5,00.0,37.3,30.0,20.3,0000.0,0007.46,0003.22,0002.62
2021-09-30 07:12:00,,0832.9,5.00,0.00,28.2,27.5,00.0,37.3,30.0,20.3,0000.0,0007.59,0003.24,0002.61
2021-09-30 07:13:00,,0833.0,5.00,0.00,28.2,27.5,00.0,37.3,30.0,20.4,0000.0,0007.68,0003.24,0002.63
2021-09-30 07:14:00,,0833.0,5.00,0.00,28.2,27.5,00.0,37.3,30.0,20.3,0000.0,0007.27,0003.24,0002.64
2021-09-30 07:15:00,,0833.0,5.00,0.00,28.2,27.5,00.0,37.3,30.0,20.3,0000.0,0007.35,0003.25,0002.66
2021-09-30 07:16:00,,0833.0,5.00,0.00,28.2,27.5,00.0,37.3,30.0,20.3,0000.0,0007.24,0003.28,0002.67
2021-09-30 07:17:00,,0833.0,5.01,0.00,28.2,27.5,00.0,37.3,30.0,20.3,0000.0,0007.49,0003.27,0002.68
2021-09-30 07:18:00,,0833.0,4.99,0.00,28.2,27.5,00.0,37.3,30.0,20.3,0000.0,0007.45,0003.28,0002.70
2021-09-30 07:19:00,,0833.0,4.99,0.00,28.2,27.5,00.0,37.3,30.0,20.3,0000.0,0007.36,0003.27,0002.72
2021-09-30 07:20:00,,0833.0,5.00,0.00,28.2,27.5,00.0,37.3,30.0,20.4,0000.0,0006.90,0003.28,0002.73
2021-09-30 07:21:00,,0833.0,5.01,0.00,28.2,27.5,00.0,37.3,30.0,20.4,0000.0,0006.15,0003.26,0002.74
2021-09-30 07:22:00,,0832.9,4.99,0.00,28.2,27.5,00.0,37.3,30.0,20.4,0000.0,0006.96,0003.29,0002.76
2021-09-30 07:23:00,,0833.0,5.01,0.00,28.2,27.5,00.0,37.3,30.0,20.5,0000.0,0007.35,0003.32,0002.77
2021-09-30 07:24:00,,0832.9,4.99,0.00,28.2,27.5,00.0,37.3,30.0,20.5,0000.0,0007.16,0003.34,0002.78
2021-09-30 07:25:00,,0832.9,5.00,0.00,28.2,27.5,00.0,37.3,30.0,20.4,0000.0,0007.27,0003.37,0002.80
2021-09-30 07:26:00,,0832.9,5.00,0.00,28.2,27.5,00.0,37.3,29.9,20.4,0000.0,0007.36,0003.39,0002.82
2021-09-30 07:27:00,,0832.8,5.00,0.00,28.2,27.4,00.0,37.3,29.9,20.5,0000.0,0007.59,0003.43,0002.84
2021-09-30 07:28:00,,0832.8,5.00,0.00,28.2,27.4,00.0,37.3,29.9,20.4,0000.0,0008.07,0003.45,0002.87
2021-09-30 07:29:00,,0832.8,5.01,0.00,28.2,27.4,00.0,37.3,30.0,20.4,0000.0,0008.23,0003.47,0002.90
2021-09-30 07:30:00,,0832.8,5.00,0.00,28.2,27.4,00.0,37.3,30.0,20.5,0000.0,0008.33,0003.48,0002.92
2021-09-30 07:31:00,,0832.8,5.00,0.00,28.2,27.4,00.0,37.3,30.0,20.4,0000.0,0008.63,0003.47,0002.94
2021-09-30 07:32:00,,0832.9,5.01,0.00,28.2,27.4,00.0,37.3,30.0,20.5,0000.0,0008.64,0003.48,0002.95
2021-09-30 07:33:00,,0832.8,5.01,0.00,28.2,27.4,00.0,37.3,29.9,20.4,0000.0,0008.44,0003.48,0002.96
2021-09-30 07:34:00,,0832.8,4.99,0.00,28.1,27.4,00.0,37.3,29.9,20.5,0000.0,0007.91,0003.47,0003.00
2021-09-30 07:35:00,,0832.9,4.99,0.00,28.2,27.4,00.0,37.3,29.9,20.4,0000.0,0007.85,0003.49,0003.04
2021-09-30 07:36:00,,0832.8,5.00,0.00,28.2,27.4,00.0,37.3,30.0,20.5,0000.0,0007.91,0003.53,0003.09
2021-09-30 07:37:00,,0832.8,5.01,0.00,28.2,27.4,00.0,37.3,29.9,20.4,0000.0,0007.95,0003.59,0003.13
2021-09-30 07:38:00,,0832.8,4.99,0.00,28.2,27.4,00.0,37.3,30.0,20.4,0000.0,0007.94,0003.62,0003.15
2021-09-30 07:39:00,,0832.8,5.01,0.00,28.2,27.4,00.0,37.3,30.0,20.4,0000.0,0007.03,0003.62,0003.17
2021-09-30 07:40:00,,0832.9,5.01,0.00,28.2,27.4,00.0,37.3,30.0,20.3,0000.0,0006.79,0003.67,0003.20
2021-09-30 07:41:00,,0832.8,5.00,0.00,28.2,27.4,00.0,37.3,30.0,20.3,0000.0,0006.84,0003.70,0003.23
2021-09-30 07:42:00,,0832.9,5.00,0.00,28.2,27.4,00.0,37.3,30.0,20.3,0000.0,0007.04,0003.76,0003.25
2021-09-30 07:43:00,,0832.8,5.00,0.00,28.2,27.4,00.0,37.3,30.0,20.4,0000.0,0007.89,0003.83,0003.29
2021-09-30 07:44:00,,0832.9,5.00,0.00,28.2,27.4,00.0,37.3,30.0,20.5,0000.0,0008.16,0003.84,0003.32
2021-09-30 07:45:00,,0832.8,4.99,0.00,28.2,27.4,00.0,37.3,30.0,20.5,0000.0,0008.07,0003.86,0003.34
2021-09-30 07:46:00,,0832.8,5.00,0.00,28.2,27.4,00.0,37.3,30.0,20.5,0000.0,0008.04,0003.87,0003.36
2021-09-30 07:47:00,,0832.9,5.00,0.00,28.2,27.4,00.0,37.3,30.0,20.3,0000.0,0007.97,0003.87,0003.37
2021-09-30 07:48:00,,0833.0,5.00,0.00,28.2,27.4,00.0,37.3,30.0,20.2,0000.0,0007.94,0003.85,0003.38
2021-09-30 07:49:00,,0833.0,4.98,0.00,28.2,27.4,00.0,37.3,30.0,20.3,0000.0,0007.83,0003.81,0003.38
2021-09-30 07:50:00,,0833.0,5.01,0.00,28.2,27.4,00.0,37.3,30.0,20.3,0000.0,0008.02,0003.83,0003.38
2021-09-30 07:51:00,,0833.0,4.99,0.00,28.2,27.4,00.0,37.3,30.0,20.3,0000.0,0007.99,0003.81,0003.37
2021-09-30 07:52:00,,0833.1,5.01,0.00,28.2,27.4,00.0,37.3,30.0,20.3,0000.0,0007.94,0003.79,0003.36
2021-09-30 07:53:00,,0833.0,5.01,0.00,28.2,27.4,00.0,37.3,30.0,20.3,0000.0,0007.18,0003.77,0003.35
2021-09-30 07:54:00,,0833.0,5.00,0.00,28.2,27.4,00.0,37.3,30.0,20.3,0000.0,0006.84,0003.73,0003.35
2021-09-30 07:55:00,,0833.0,5.00,0.00,28.2,27.4,00.0,37.3,30.0,20.2,0000.0,0007.46,0003.73,0003.35
2021-09-30 07:56:00,,0833.1,5.00,0.00,28.2,27.4,00.0,37.3,30.0,20.3,0000.0,0007.72,0003.75,0003.34
2021-09-30 07:57:00,,0833.1,5.00,0.00,28.2,27.4,00.0,37.3,30.1,20.2,0000.0,0007.72,0003.73,0003.33
2021-09-30 07:58:00,,0833.2,5.01,0.00,28.2,27.5,00.0,37.3,30.1,20.2,0000.0,0007.95,0003.75,0003.33
2021-09-30 07:59:00,,0833.1,4.99,0.00,28.2,27.5,00.0,37.3,30.0,20.2,0000.0,0008.70,0003.74,0003.33
